Time,TemperatureF,DewpointF,PressureIn,WindDirection,WindDirectionDegrees,WindSpeedMPH,WindSpeedGustMPH,Humidity,HourlyPrecipIn,Conditions,Clouds,dailyrainin,SoftwareType,DateUTC
2013-06-07 00:02:00,62.4,58.5,29.89,SSE,152,0.0,2.0,87,0.00,,,0.00,VWS V14.01,2013-06-07 04:02:00,
2013-06-07 00:12:00,62.5,58.6,29.89,SSE,165,1.0,2.0,87,0.00,,,0.00,VWS V14.01,2013-06-07 04:12:00,
2013-06-07 00:22:00,62.5,58.6,29.89,SSE,161,0.0,2.0,87,0.00,,,0.00,VWS V14.01,2013-06-07 04:22:00,
2013-06-07 00:32:00,62.4,58.5,29.89,SSW,211,0.0,2.0,87,0.00,,,0.00,VWS V14.01,2013-06-07 04:32:00,
2013-06-07 00:42:00,62.4,58.5,29.89,WSW,244,1.0,2.0,87,0.00,,,0.00,VWS V14.01,2013-06-07 04:42:00,
2013-06-07 00:52:00,62.3,59.0,29.88,WSW,244,1.0,2.0,89,0.00,,,0.00,VWS V14.01,2013-06-07 04:52:00,
2013-06-07 01:02:00,62.0,59.0,29.87,East,100,1.0,3.0,90,0.00,,,0.00,VWS V14.01,2013-06-07 05:02:00,
2013-06-07 01:12:00,61.7,58.7,29.87,North,355,0.0,2.0,90,0.00,,,0.00,VWS V14.01,2013-06-07 05:12:00,
2013-06-07 01:22:00,61.5,58.2,29.87,NNW,337,0.0,2.0,89,0.00,,,0.00,VWS V14.01,2013-06-07 05:22:00,
2013-06-07 01:32:00,61.4,58.5,29.87,ESE,118,1.0,2.0,90,0.00,,,0.00,VWS V14.01,2013-06-07 05:32:00,
2013-06-07 01:42:00,61.2,57.9,29.87,SSE,149,1.0,2.0,89,0.00,,,0.00,VWS V14.01,2013-06-07 05:42:00,
2013-06-07 01:52:00,61.1,57.8,29.86,South,174,1.0,3.0,89,0.00,,,0.00,VWS V14.01,2013-06-07 05:52:00,
2013-06-07 02:02:00,61.0,57.7,29.86,SSE,153,0.0,3.0,89,0.00,,,0.00,VWS V14.01,2013-06-07 06:02:00,
2013-06-07 02:12:00,60.9,57.6,29.86,ESE,123,0.0,4.0,89,0.01,,,0.01,VWS V14.01,2013-06-07 06:12:00,
2013-06-07 02:22:00,60.8,57.5,29.86,SSE,166,0.0,3.0,89,0.01,,,0.01,VWS V14.01,2013-06-07 06:22:00,
2013-06-07 02:32:00,60.6,58.0,29.85,SSE,156,1.0,1.0,91,0.01,,,0.01,VWS V14.01,2013-06-07 06:32:00,
2013-06-07 02:42:00,60.3,58.0,29.85,SSW,193,0.0,2.0,92,0.01,,,0.01,VWS V14.01,2013-06-07 06:42:00,
2013-06-07 02:52:00,60.1,57.8,29.86,SE,130,0.0,3.0,92,0.02,,,0.02,VWS V14.01,2013-06-07 06:52:00,
2013-06-07 03:02:00,59.9,57.6,29.85,ESE,122,0.0,1.0,92,0.02,,,0.02,VWS V14.01,2013-06-07 07:02:00,
2013-06-07 03:12:00,59.8,57.5,29.85,ESE,122,0.0,1.0,92,0.02,,,0.02,VWS V14.01,2013-06-07 07:12:00,
2013-06-07 03:22:00,59.7,57.7,29.85,ENE,72,0.0,2.0,93,0.01,,,0.02,VWS V14.01,2013-06-07 07:22:00,
2013-06-07 03:32:00,59.7,57.7,29.84,ENE,73,0.0,1.0,93,0.01,,,0.02,VWS V14.01,2013-06-07 07:32:00,
2013-06-07 03:42:00,59.6,57.6,29.84,ESE,119,1.0,1.0,93,0.01,,,0.02,VWS V14.01,2013-06-07 07:42:00,
2013-06-07 03:52:00,59.6,57.9,29.84,South,188,0.0,2.0,94,0.01,,,0.02,VWS V14.01,2013-06-07 07:52:00,
2013-06-07 04:02:00,59.6,57.9,29.84,SW,234,0.0,2.0,94,0.00,,,0.02,VWS V14.01,2013-06-07 08:02:00,
2013-06-07 04:12:00,59.5,58.1,29.84,SW,234,1.0,1.0,95,0.00,,,0.02,VWS V14.01,2013-06-07 08:12:00,
2013-06-07 04:22:00,59.6,58.2,29.84,SW,234,0.0,2.0,95,0.00,,,0.02,VWS V14.01,2013-06-07 08:22:00,
2013-06-07 04:32:00,59.5,57.8,29.83,SW,234,0.0,1.0,94,0.00,,,0.02,VWS V14.01,2013-06-07 08:32:00,
2013-06-07 04:42:00,59.4,57.7,29.83,SW,234,0.0,2.0,94,0.00,,,0.02,VWS V14.01,2013-06-07 08:42:00,
2013-06-07 04:52:00,59.4,57.7,29.83,SW,234,0.0,2.0,94,0.01,,,0.03,VWS V14.01,2013-06-07 08:52:00,
2013-06-07 05:02:00,59.4,58.0,29.83,SW,234,1.0,2.0,95,0.01,,,0.03,VWS V14.01,2013-06-07 09:02:00,
2013-06-07 05:12:00,59.3,57.9,29.83,SW,234,0.0,1.0,95,0.03,,,0.05,VWS V14.01,2013-06-07 09:12:00,
2013-06-07 05:22:00,59.2,58.1,29.83,SW,234,1.0,2.0,96,0.07,,,0.09,VWS V14.01,2013-06-07 09:22:00,
2013-06-07 05:32:00,59.1,58.0,29.83,SW,234,1.0,2.0,96,0.08,,,0.10,VWS V14.01,2013-06-07 09:32:00,
2013-06-07 05:42:00,59.0,57.9,29.83,SW,234,1.0,2.0,96,0.08,,,0.10,VWS V14.01,2013-06-07 09:42:00,
2013-06-07 05:52:00,59.0,58.2,29.83,SE,136,1.0,3.0,97,0.08,,,0.10,VWS V14.01,2013-06-07 09:52:00,
2013-06-07 06:02:00,59.1,58.2,29.83,SE,134,1.0,2.0,97,0.07,,,0.10,VWS V14.01,2013-06-07 10:02:00,
2013-06-07 06:12:00,59.1,58.2,29.83,SE,132,0.0,3.0,97,0.07,,,0.10,VWS V14.01,2013-06-07 10:12:00,
2013-06-07 06:22:00,59.2,58.3,29.83,SSE,149,1.0,4.0,97,0.05,,,0.10,VWS V14.01,2013-06-07 10:22:00,
2013-06-07 06:32:00,59.4,58.5,29.82,ESE,107,1.0,3.0,97,0.01,,,0.10,VWS V14.01,2013-06-07 10:32:00,
2013-06-07 06:42:00,59.3,58.5,29.82,SE,130,1.0,3.0,97,0.00,,,0.10,VWS V14.01,2013-06-07 10:42:00,
2013-06-07 06:52:00,59.3,58.5,29.82,SSW,211,0.0,5.0,97,0.00,,,0.10,VWS V14.01,2013-06-07 10:52:00,
2013-06-07 07:02:00,59.4,58.5,29.82,SSW,201,2.0,3.0,97,0.00,,,0.10,VWS V14.01,2013-06-07 11:02:00,
2013-06-07 07:12:00,59.4,58.5,29.82,East,88,1.0,4.0,97,0.00,,,0.10,VWS V14.01,2013-06-07 11:12:00,
2013-06-07 07:22:00,59.6,59.0,29.82,ESE,109,1.0,2.0,98,0.00,,,0.10,VWS V14.01,2013-06-07 11:22:00,
2013-06-07 07:32:00,59.7,59.1,29.82,South,178,0.0,4.0,98,0.00,,,0.10,VWS V14.01,2013-06-07 11:32:00,
2013-06-07 07:42:00,59.9,59.3,29.82,South,178,1.0,3.0,98,0.00,,,0.10,VWS V14.01,2013-06-07 11:42:00,
2013-06-07 07:52:00,59.9,59.0,29.81,ESE,110,1.0,4.0,97,0.00,,,0.10,VWS V14.01,2013-06-07 11:52:00,
2013-06-07 08:02:00,59.9,59.0,29.81,SSE,152,1.0,3.0,97,0.00,,,0.10,VWS V14.01,2013-06-07 12:02:00,
2013-06-07 08:12:00,60.1,59.5,29.81,SSE,152,1.0,3.0,98,0.00,,,0.10,VWS V14.01,2013-06-07 12:12:00,
2013-06-07 08:22:00,60.1,59.2,29.81,SE,146,1.0,4.0,97,0.00,,,0.10,VWS V14.01,2013-06-07 12:22:00,
2013-06-07 08:32:00,60.1,59.2,29.81,SE,146,1.0,3.0,97,0.00,,,0.10,VWS V14.01,2013-06-07 12:32:00,
2013-06-07 08:42:00,60.1,59.2,29.81,SE,146,2.0,2.0,97,0.00,,,0.10,VWS V14.01,2013-06-07 12:42:00,
2013-06-07 08:52:00,60.1,59.2,29.82,SE,130,2.0,5.0,97,0.00,,,0.10,VWS V14.01,2013-06-07 12:52:00,
2013-06-07 09:02:00,60.1,59.2,29.81,SE,130,1.0,3.0,97,0.00,,,0.10,VWS V14.01,2013-06-07 13:02:00,
2013-06-07 09:12:00,60.2,59.3,29.81,SE,130,1.0,3.0,97,0.00,,,0.10,VWS V14.01,2013-06-07 13:12:00,
2013-06-07 09:22:00,60.2,59.3,29.81,SE,130,1.0,3.0,97,0.00,,,0.10,VWS V14.01,2013-06-07 13:22:00,
2013-06-07 09:32:00,60.2,59.3,29.80,SE,130,1.0,4.0,97,0.00,,,0.10,VWS V14.01,2013-06-07 13:32:00,
2013-06-07 09:42:00,60.2,59.3,29.80,SE,130,1.0,3.0,97,0.00,,,0.10,VWS V14.01,2013-06-07 13:42:00,
2013-06-07 09:52:00,60.3,59.7,29.80,SE,130,1.0,3.0,98,0.01,,,0.11,VWS V14.01,2013-06-07 13:52:00,
2013-06-07 10:02:00,60.4,59.8,29.79,SE,130,0.0,3.0,98,0.01,,,0.11,VWS V14.01,2013-06-07 14:02:00,
2013-06-07 10:12:00,60.4,59.5,29.79,ESE,111,1.0,5.0,97,0.02,,,0.12,VWS V14.01,2013-06-07 14:12:00,
2013-06-07 10:22:00,60.4,59.8,29.79,ENE,70,1.0,5.0,98,0.02,,,0.12,VWS V14.01,2013-06-07 14:22:00,
2013-06-07 10:32:00,60.5,59.9,29.79,ENE,76,0.0,4.0,98,0.04,,,0.14,VWS V14.01,2013-06-07 14:32:00,
2013-06-07 10:42:00,60.7,60.1,29.79,East,98,1.0,3.0,98,0.05,,,0.15,VWS V14.01,2013-06-07 14:42:00,
2013-06-07 10:52:00,60.7,60.1,29.79,East,88,3.0,5.0,98,0.05,,,0.15,VWS V14.01,2013-06-07 14:52:00,
2013-06-07 11:02:00,60.5,59.7,29.78,ESE,116,1.0,4.0,97,0.06,,,0.17,VWS V14.01,2013-06-07 15:02:00,
2013-06-07 11:12:00,60.6,59.8,29.78,SE,134,0.0,4.0,97,0.09,,,0.20,VWS V14.01,2013-06-07 15:12:00,
2013-06-07 11:22:00,60.5,59.9,29.78,SSW,211,0.0,4.0,98,0.11,,,0.23,VWS V14.01,2013-06-07 15:22:00,
2013-06-07 11:32:00,60.5,59.9,29.78,WSW,242,0.0,3.0,98,0.14,,,0.26,VWS V14.01,2013-06-07 15:32:00,
2013-06-07 11:42:00,60.4,59.8,29.78,ENE,63,1.0,5.0,98,0.15,,,0.29,VWS V14.01,2013-06-07 15:42:00,
2013-06-07 11:52:00,60.4,59.8,29.77,NE,51,1.0,5.0,98,0.16,,,0.31,VWS V14.01,2013-06-07 15:52:00,
2013-06-07 12:02:00,60.3,59.7,29.77,South,186,1.0,5.0,98,0.19,,,0.34,VWS V14.01,2013-06-07 16:02:00,
2013-06-07 12:12:00,60.3,59.7,29.77,SW,221,3.0,4.0,98,0.22,,,0.39,VWS V14.01,2013-06-07 16:12:00,
2013-06-07 12:22:00,60.2,59.6,29.76,ENE,71,3.0,4.0,98,0.23,,,0.43,VWS V14.01,2013-06-07 16:22:00,
2013-06-07 12:32:00,60.2,59.6,29.76,East,90,1.0,6.0,98,0.24,,,0.47,VWS V14.01,2013-06-07 16:32:00,
2013-06-07 12:42:00,60.3,59.7,29.76,NE,42,3.0,4.0,98,0.24,,,0.50,VWS V14.01,2013-06-07 16:42:00,
2013-06-07 12:52:00,60.4,59.8,29.76,ESE,119,1.0,3.0,98,0.23,,,0.52,VWS V14.01,2013-06-07 16:52:00,
2013-06-07 13:02:00,60.2,59.6,29.75,East,99,2.0,5.0,98,0.23,,,0.54,VWS V14.01,2013-06-07 17:02:00,
2013-06-07 13:12:00,60.3,59.7,29.75,East,91,1.0,4.0,98,0.21,,,0.55,VWS V14.01,2013-06-07 17:12:00,
2013-06-07 13:22:00,60.2,59.6,29.75,East,91,1.0,3.0,98,0.17,,,0.56,VWS V14.01,2013-06-07 17:22:00,
2013-06-07 13:32:00,60.1,59.5,29.75,East,86,0.0,5.0,98,0.15,,,0.58,VWS V14.01,2013-06-07 17:32:00,
2013-06-07 13:42:00,60.2,59.6,29.75,East,86,1.0,2.0,98,0.13,,,0.60,VWS V14.01,2013-06-07 17:42:00,
2013-06-07 13:52:00,60.2,59.6,29.75,East,86,2.0,3.0,98,0.12,,,0.62,VWS V14.01,2013-06-07 17:52:00,
2013-06-07 14:02:00,60.3,59.7,29.74,ESE,123,0.0,4.0,98,0.11,,,0.63,VWS V14.01,2013-06-07 18:02:00,
2013-06-07 14:12:00,60.4,60.1,29.74,ESE,111,2.0,3.0,99,0.10,,,0.64,VWS V14.01,2013-06-07 18:12:00,
2013-06-07 14:22:00,60.5,60.2,29.73,East,101,1.0,4.0,99,0.10,,,0.65,VWS V14.01,2013-06-07 18:22:00,
2013-06-07 14:32:00,60.5,60.2,29.73,ENE,72,1.0,5.0,99,0.11,,,0.67,VWS V14.01,2013-06-07 18:32:00,
2013-06-07 14:42:00,60.6,60.3,29.73,ENE,72,3.0,3.0,99,0.11,,,0.69,VWS V14.01,2013-06-07 18:42:00,
2013-06-07 14:52:00,60.7,60.4,29.73,East,95,2.0,3.0,99,0.12,,,0.72,VWS V14.01,2013-06-07 18:52:00,
2013-06-07 15:02:00,60.7,60.4,29.73,West,267,0.0,3.0,99,0.15,,,0.77,VWS V14.01,2013-06-07 19:02:00,
2013-06-07 15:12:00,60.8,60.5,29.73,ENE,71,2.0,4.0,99,0.19,,,0.82,VWS V14.01,2013-06-07 19:12:00,
2013-06-07 15:32:00,60.9,60.6,29.71,East,84,1.0,2.0,99,0.28,,,0.93,VWS V14.01,2013-06-07 19:32:00,
2013-06-07 15:42:00,60.9,60.6,29.71,East,96,2.0,5.0,99,0.30,,,0.97,VWS V14.01,2013-06-07 19:42:00,
2013-06-07 15:52:00,60.9,60.6,29.70,East,96,1.0,2.0,99,0.32,,,1.01,VWS V14.01,2013-06-07 19:52:00,
2013-06-07 16:02:00,60.9,60.6,29.70,ESE,116,1.0,3.0,99,0.31,,,1.03,VWS V14.01,2013-06-07 20:02:00,
2013-06-07 16:12:00,60.9,60.6,29.70,ESE,116,0.0,3.0,99,0.29,,,1.06,VWS V14.01,2013-06-07 20:12:00,
2013-06-07 16:22:00,61.1,60.8,29.69,ESE,102,1.0,3.0,99,0.28,,,1.10,VWS V14.01,2013-06-07 20:22:00,
2013-06-07 16:32:00,61.1,60.8,29.67,ESE,112,1.0,3.0,99,0.26,,,1.14,VWS V14.01,2013-06-07 20:32:00,
2013-06-07 16:42:00,61.0,60.7,29.67,SE,128,3.0,3.0,99,0.25,,,1.18,VWS V14.01,2013-06-07 20:42:00,
2013-06-07 16:52:00,61.1,60.8,29.67,SE,128,1.0,3.0,99,0.24,,,1.21,VWS V14.01,2013-06-07 20:52:00,
2013-06-07 17:02:00,60.9,60.6,29.67,SW,219,2.0,3.0,99,0.24,,,1.25,VWS V14.01,2013-06-07 21:02:00,
2013-06-07 17:12:00,60.8,60.2,29.67,SE,128,1.0,4.0,98,0.28,,,1.31,VWS V14.01,2013-06-07 21:12:00,
2013-06-07 17:32:00,60.4,60.1,29.60,East,94,1.0,4.0,99,0.35,,,1.45,VWS V14.01,2013-06-07 21:32:00,
2013-06-07 17:42:00,60.4,60.1,29.60,NE,40,2.0,5.0,99,0.37,,,1.51,VWS V14.01,2013-06-07 21:42:00,
2013-06-07 18:02:00,60.7,60.4,29.60,East,83,1.0,4.0,99,0.48,,,1.69,VWS V14.01,2013-06-07 22:02:00,
2013-06-07 18:12:00,60.7,60.4,29.60,NE,47,0.0,4.0,99,0.54,,,1.79,VWS V14.01,2013-06-07 22:12:00,
2013-06-07 18:22:00,60.6,60.3,29.58,ENE,63,1.0,3.0,99,0.60,,,1.91,VWS V14.01,2013-06-07 22:22:00,
2013-06-07 18:32:00,60.5,60.2,29.58,SSE,158,1.0,3.0,99,0.67,,,2.04,VWS V14.01,2013-06-07 22:32:00,
2013-06-07 18:42:00,60.4,60.1,29.58,NE,38,1.0,7.0,99,0.72,,,2.17,VWS V14.01,2013-06-07 22:42:00,
2013-06-07 18:52:00,60.3,60.0,29.59,ENE,61,0.0,4.0,99,0.78,,,2.29,VWS V14.01,2013-06-07 22:52:00,
2013-06-07 19:02:00,60.5,60.2,29.58,ENE,65,1.0,4.0,99,0.82,,,2.41,VWS V14.01,2013-06-07 23:02:00,
2013-06-07 19:12:00,60.6,60.3,29.58,ENE,61,2.0,3.0,99,0.85,,,2.54,VWS V14.01,2013-06-07 23:12:00,
2013-06-07 19:22:00,60.4,60.1,29.60,NNE,31,1.0,3.0,99,0.87,,,2.66,VWS V14.01,2013-06-07 23:22:00,
2013-06-07 19:42:00,59.9,59.6,29.60,ENE,72,3.0,5.0,99,0.87,,,2.91,VWS V14.01,2013-06-07 23:42:00,
2013-06-07 20:12:00,58.8,58.2,29.60,ESE,104,0.0,2.0,98,0.86,,,3.27,VWS V14.01,2013-06-08 00:12:00,
2013-06-07 20:22:00,58.5,58.2,29.60,NE,34,2.0,4.0,99,0.83,,,3.37,VWS V14.01,2013-06-08 00:22:00,
2013-06-07 20:32:00,58.4,58.1,29.58,ENE,60,2.0,4.0,99,0.81,,,3.47,VWS V14.01,2013-06-08 00:32:00,
2013-06-07 20:42:00,58.4,58.1,29.58,NE,40,0.0,4.0,99,0.79,,,3.57,VWS V14.01,2013-06-08 00:42:00,
2013-06-07 21:02:00,58.8,58.5,29.59,NE,38,1.0,5.0,99,0.72,,,3.75,VWS V14.01,2013-06-08 01:02:00,
2013-06-07 21:22:00,59.1,58.8,29.58,NE,38,2.0,4.0,99,0.61,,,3.88,VWS V14.01,2013-06-08 01:22:00,
2013-06-07 21:32:00,59.4,59.1,29.58,NE,38,1.0,3.0,99,0.55,,,3.92,VWS V14.01,2013-06-08 01:32:00,
2013-06-07 21:42:00,59.7,59.4,29.58,NE,38,0.0,2.0,99,0.45,,,3.92,VWS V14.01,2013-06-08 01:42:00,
2013-06-07 21:52:00,60.0,59.7,29.57,NE,38,1.0,3.0,99,0.39,,,3.96,VWS V14.01,2013-06-08 01:52:00,
2013-06-07 22:02:00,60.3,60.0,29.56,NE,43,1.0,4.0,99,0.35,,,4.01,VWS V14.01,2013-06-08 02:02:00,
2013-06-07 22:12:00,60.5,60.2,29.56,NE,43,1.0,3.0,99,0.30,,,4.05,VWS V14.01,2013-06-08 02:12:00,
2013-06-07 22:22:00,61.2,61.2,29.55,NE,43,1.0,4.0,100,0.26,,,4.08,VWS V14.01,2013-06-08 02:22:00,
2013-06-07 22:32:00,63.1,62.8,29.53,SSE,168,2.0,4.0,99,0.20,,,4.08,VWS V14.01,2013-06-08 02:32:00,
2013-06-07 22:42:00,64.3,64.0,29.53,South,185,0.0,4.0,99,0.16,,,4.08,VWS V14.01,2013-06-08 02:42:00,
2013-06-07 22:52:00,64.7,64.4,29.53,SSW,202,2.0,5.0,99,0.17,,,4.09,VWS V14.01,2013-06-08 02:52:00,
2013-06-07 23:02:00,65.2,65.2,29.51,ESE,115,2.0,6.0,100,0.15,,,4.11,VWS V14.01,2013-06-08 03:02:00,
2013-06-07 23:22:00,66.2,66.2,29.51,SSW,205,3.0,5.0,100,0.20,,,4.25,VWS V14.01,2013-06-08 03:22:00,
2013-06-07 23:32:00,66.1,65.8,29.51,ENE,71,2.0,5.0,99,0.24,,,4.32,VWS V14.01,2013-06-08 03:32:00,
2013-06-07 23:43:00,65.9,65.6,29.51,SSW,211,2.0,5.0,99,0.31,,,4.39,VWS V14.01,2013-06-08 03:43:00,
2013-06-07 23:52:00,65.9,65.6,29.50,SSW,208,2.0,4.0,99,0.37,,,4.45,VWS V14.01,2013-06-08 03:52:00,